Theta_e
315 314 318 318 316 314 312 311 311 308 308 308 307 306 305 304 304 303 301 299 297 296 294 293 292 292 291 291 291 291 290 291 291 291 291 293 294 294
315 314 318 318 317 315 314 313 313 313 309 307 307 307 306 305 304 303 301 299 297 296 294 293 292 291 291 290 290 290 289 289 290 289 288 289 291 293
316 315 317 318 317 315 314 314 313 313 312 308 306 306 305 305 304 302 301 299 297 295 293 292 291 291 290 290 290 289 289 288 288 287 287 287 288 292
316 316 317 316 315 315 314 314 314 314 313 310 308 306 305 304 302 301 300 299 296 294 292 291 290 290 290 290 289 289 288 287 287 287 287 286 287 289
316 316 316 316 316 314 314 313 313 314 314 312 310 308 306 303 302 300 299 297 295 292 291 290 290 289 289 289 288 287 287 287 287 287 286 286 286 289
315 315 315 315 315 315 314 313 314 314 313 312 310 308 306 303 300 300 298 296 293 291 290 291 290 289 288 288 287 287 287 287 286 286 286 287 288 287
312 312 313 313 314 314 315 315 315 314 313 312 310 308 305 302 301 299 296 293 292 294 292 291 289 288 288 287 287 287 286 286 286 286 285 285 285 284
311 311 311 310 312 313 313 313 313 313 313 311 309 306 304 302 299 296 293 296 297 297 293 289 288 287 287 287 287 287 286 285 285 285 284 284 284 284
311 311 310 310 310 311 312 312 312 312 310 309 308 305 303 300 295 294 301 302 298 292 289 288 288 287 287 287 286 286 285 284 284 284 284 284 284 284
311 310 310 309 309 309 309 310 310 308 306 304 300 300 296 293 299 302 299 294 290 288 288 287 287 287 287 286 286 285 285 284 284 283 283 284 283 283
311 311 311 309 309 308 308 309 307 303 299 295 293 292 293 300 301 300 297 291 288 288 288 286 287 287 286 286 286 285 284 283 283 283 283 283 283 282
311 311 310 310 309 308 308 307 304 299 296 293 292 296 299 299 299 295 291 288 288 287 286 286 286 285 285 286 285 284 284 283 283 283 283 282 282 282
311 310 310 308 307 307 305 304 303 298 292 292 294 297 297 297 295 290 288 288 287 286 286 285 285 284 284 284 285 284 284 284 283 283 283 282 282 281
310 310 309 308 306 303 299 296 295 294 294 295 296 297 297 296 289 288 288 287 286 286 285 284 284 283 283 282 283 284 283 283 282 282 282 282 282 281
307 307 308 307 304 300 296 292 292 293 294 296 296 297 296 289 288 287 287 286 286 285 284 283 283 283 282 282 282 283 281 282 282 281 281 281 281 281
303 302 300 298 296 294 292 293 292 293 295 295 296 293 288 287 288 286 286 286 284 283 283 283 282 282 282 282 281 282 281 280 281 280 280 281 281 281
301 298 295 296 294 292 292 292 293 294 294 295 290 288 289 288 286 286 285 284 283 283 282 282 282 282 282 282 282 281 281 281 280 280 280 280 280 281
296 294 293 293 292 293 293 293 293 294 291 289 289 290 289 286 286 285 284 283 283 282 282 282 281 281 282 282 282 281 281 280 280 280 280 280 281 281
294 293 293 292 292 292 292 293 293 292 290 290 290 287 286 285 285 284 283 283 282 282 282 281 281 281 281 281 282 281 280 280 280 280 280 280 280 281
292 292 292 292 292 292 293 293 292 290 291 289 286 286 285 285 284 283 283 282 282 282 281 281 281 280 280 280 281 282 280 280 280 280 280 280 280 281
291 292 292 292 293 293 292 292 291 290 288 286 286 286 285 284 283 283 282 282 282 281 281 281 280 280 280 280 280 280 281 280 280 280 280 280 280 281
291 291 292 292 292 292 291 291 289 287 286 286 286 285 284 283 283 282 282 281 281 281 281 280 280 280 280 279 280 280 280 280 280 280 280 280 280 280
291 291 291 292 291 290 288 287 286 286 286 286 285 284 284 283 282 281 281 281 281 281 281 280 280 280 280 280 279 279 280 280 280 280 280 280 281 281
Wind_Speed
61 60 55 51 47 38 28 21 15 16 26 31 29 32 30 26 24 21 19 16 15 13 12 13 14 13 13 14 15 15 15 12 14 14 12 14 14 13
56 60 56 51 50 43 36 31 25 19 16 21 27 27 28 29 27 24 21 19 16 13 13 15 14 13 14 15 17 15 14 14 15 17 17 16 16 15
54 57 53 48 49 46 40 34 27 22 20 16 19 23 24 27 29 27 24 20 17 15 15 15 14 13 15 16 17 17 17 16 17 19 20 20 19 16
52 54 51 46 47 47 44 38 32 26 23 22 19 21 25 27 27 25 22 20 17 16 16 15 14 15 16 17 16 18 18 18 19 19 20 20 20 19
48 50 49 45 46 47 45 40 34 29 27 25 24 22 24 26 28 27 24 21 18 16 16 15 16 16 17 17 16 18 18 19 20 21 21 21 20 18
40 36 39 42 43 42 42 40 35 32 30 28 27 25 25 27 28 25 23 20 17 16 16 17 17 16 17 15 18 19 19 20 20 20 19 17 17 20
31 32 33 34 36 37 39 39 37 34 34 32 31 29 28 28 27 25 23 17 16 18 18 18 17 16 16 17 19 19 20 20 20 20 20 21 22 25
29 29 30 33 35 36 37 37 34 34 35 34 33 31 27 26 25 23 18 16 19 19 18 17 14 15 17 18 19 20 20 19 20 19 20 23 26 26
29 31 33 33 34 36 36 35 33 32 30 27 29 28 24 24 22 18 15 18 18 16 15 15 15 15 16 18 18 19 17 16 18 20 24 23 26 26
30 29 29 31 32 32 32 31 30 28 24 22 19 19 22 22 17 14 14 16 17 17 15 16 15 13 14 16 17 17 12 13 20 20 23 23 24 24
31 29 26 26 25 27 29 30 29 28 26 24 24 25 23 18 14 14 15 17 17 16 15 14 14 12 13 15 14 8 15 17 20 21 22 22 23 26
30 30 27 26 27 27 30 32 33 31 30 30 29 25 20 14 12 13 15 15 15 13 14 11 11 11 7 10 6 16 17 18 20 20 21 21 24 27
39 36 32 29 28 28 28 29 27 30 31 29 27 24 17 13 14 15 15 15 14 13 13 12 11 11 10 12 14 14 15 18 20 21 20 22 23 26
38 35 33 32 31 30 30 27 28 30 29 29 24 15 13 17 16 15 15 13 13 13 12 11 12 12 14 17 18 17 16 18 20 19 23 24 24 24
32 36 35 34 34 31 29 30 33 32 28 23 13 16 18 16 17 15 14 12 12 13 12 12 11 12 14 18 20 20 22 20 15 22 25 26 27 27
22 27 32 34 35 36 34 34 30 26 20 17 22 18 20 18 15 15 13 13 12 12 12 12 12 13 15 17 19 19 17 19 21 22 26 27 26 28
23 28 31 33 35 36 36 32 28 21 21 21 18 20 19 18 17 15 14 12 11 11 11 12 13 15 16 16 19 17 14 17 19 24 27 29 29 29
24 32 34 35 36 36 32 28 26 25 22 21 22 22 19 19 17 16 13 12 12 12 12 13 14 15 17 15 15 14 14 18 21 24 26 31 35 31
27 33 35 36 35 33 30 28 27 24 22 21 18 19 19 17 17 15 13 12 12 12 13 13 14 15 16 18 19 17 19 21 24 27 28 29 35 36
30 36 37 33 31 30 28 26 22 22 20 18 19 18 17 16 15 14 13 12 13 13 13 13 14 15 16 17 21 20 18 23 25 28 31 32 34 38
28 31 29 28 28 25 25 21 19 18 19 18 18 17 16 15 14 14 13 13 13 14 13 12 13 16 17 18 21 25 23 19 22 26 29 32 36 42
24 24 26 23 21 19 18 17 19 20 19 18 17 15 14 15 15 14 14 14 14 14 14 13 13 16 16 18 22 25 28 26 21 21 22 24 30 35
17 17 19 19 17 16 17 19 20 18 17 16 15 15 15 16 14 15 15 15 14 14 14 14 14 16 17 19 22 26 26 27 28 31 31 29 28 31
Wind_Direction
223 224 225 222 226 227 231 231 231 213 226 229 226 228 228 230 234 238 241 244 250 261 277 300 306 311 313 312 313 319 316 309 311 315 312 313 317 320
219 222 222 225 225 227 231 237 245 245 240 235 231 231 229 230 233 236 240 244 251 264 285 300 302 303 307 309 312 314 307 302 304 311 315 312 311 313
217 221 221 224 224 225 230 236 240 241 239 234 227 228 227 228 231 233 237 245 256 268 284 290 295 300 299 303 307 304 303 305 306 308 310 310 309 310
219 221 222 223 224 226 231 235 238 241 240 238 233 227 227 226 229 234 237 242 250 263 277 285 291 295 297 303 296 299 302 306 308 309 309 308 307 306
218 218 222 224 224 225 230 233 235 238 239 241 239 237 231 226 224 225 230 237 247 262 274 279 286 292 291 292 294 296 301 306 308 306 306 306 305 307
216 219 226 227 227 227 229 232 233 234 236 238 241 239 232 225 220 225 228 234 248 263 271 277 283 283 285 290 295 298 302 302 303 303 306 306 302 304
211 216 223 228 229 229 228 230 231 231 234 237 236 234 229 219 219 221 222 233 252 267 270 275 277 278 285 294 292 295 297 299 297 304 304 303 306 306
211 215 219 225 227 227 228 232 235 234 234 233 234 234 231 222 217 213 216 236 252 267 266 264 266 277 285 287 291 297 299 295 300 306 305 309 308 306
212 219 219 220 222 223 223 227 230 232 236 246 241 234 230 223 208 203 235 257 253 256 258 259 266 275 283 288 294 296 295 294 306 307 309 309 307 305
211 216 221 222 223 222 222 222 223 225 225 222 221 232 214 196 202 237 258 251 250 250 255 266 270 280 282 290 294 295 298 304 307 308 308 310 311 311
212 210 215 216 218 218 218 216 213 209 204 202 201 195 192 205 233 259 252 241 237 249 255 260 276 283 294 293 289 277 310 311 308 310 315 316 315 314
211 213 210 216 216 214 213 211 206 201 200 194 191 193 205 230 269 260 243 238 243 249 256 254 281 301 312 297 271 306 309 306 311 316 317 315 317 317
215 206 204 205 210 212 211 212 216 205 194 195 199 209 230 245 242 230 231 236 243 249 263 274 283 292 292 280 287 296 303 311 316 317 311 313 319 320
209 205 206 207 204 204 199 200 203 202 205 209 208 226 237 242 221 223 234 245 255 263 267 276 286 291 292 297 304 310 320 321 316 313 314 320 323 320
216 210 203 204 201 196 193 191 195 198 201 202 222 256 233 217 218 226 238 247 254 260 269 273 277 285 293 297 302 317 321 320 315 318 316 319 322 326
212 207 201 194 190 189 180 189 197 207 210 233 243 216 207 213 226 234 239 244 251 258 266 273 280 287 291 295 298 313 316 305 316 315 315 319 323 328
196 193 188 194 186 181 188 195 195 202 228 216 200 205 214 222 227 231 236 245 253 261 271 278 281 287 292 296 302 312 308 306 314 317 320 320 324 329
194 186 188 192 187 184 186 193 208 210 200 197 204 215 220 225 224 227 233 244 254 266 274 277 284 290 294 303 303 304 310 313 320 321 322 320 321 329
190 190 193 194 195 196 203 204 200 202 206 207 208 215 216 215 221 228 238 248 258 267 273 280 287 292 301 308 311 316 321 323 322 319 320 319 316 324
192 188 190 193 196 199 196 204 206 199 196 205 211 210 214 221 228 233 243 254 263 266 275 279 284 290 301 303 306 312 319 321 320 318 319 315 316 319
197 197 197 194 194 206 206 198 186 196 209 211 212 212 216 225 233 240 252 259 261 269 273 280 284 289 294 301 302 310 316 319 316 314 317 318 320 320
198 199 198 205 202 189 184 191 204 211 212 211 214 218 225 234 238 249 260 261 265 270 274 278 280 286 292 296 302 308 313 320 316 308 306 314 318 312
196 197 186 175 180 193 199 207 210 212 211 215 219 225 232 238 247 257 261 264 260 262 268 272 275 283 293 298 303 309 314 320 323 320 317 324 324 326